Location: Brivio
(45.7333°N, 9.4500°E)
Time: 23:45:14
(UTC+00:00)

STARLINK-60 - Pass Details

Date: 18 October 2019
Orbit: 418 x 427 km, 53.0° (Epoch: 21 November)

Event Time Altitude Azimuth Distance (km) Brightness Sun altitude
Rises 17:16:00 0° 299° (WNW) 2,388 7.9 -8.4°
Reaches altitude 10° 17:18:18 10° 311° (NW) 1,525 6.6 -8.8°
Maximum altitude 17:21:18 27° 12° (NNE) 853 4.4 -9.3°
Enters shadow 17:23:46 13° 68° (ENE) 1,350 5.0 -9.8°
